Time,TemperatureF,DewpointF,PressureIn,WindDirection,WindDirectionDegrees,WindSpeedMPH,WindSpeedGustMPH,Humidity,HourlyPrecipIn,Conditions,Clouds,dailyrainin,SoftwareType,DateUTC
2013-08-20 00:03:00,71.4,63.8,29.85,North,0,2.4,2.4,77,0.00,,---,0.00,VWS V14.00,2013-08-20 05:03:00,
2013-08-20 00:09:00,71.4,63.8,29.82,North,0,2.7,2.7,77,0.00,,---,0.00,VWS V14.00,2013-08-20 05:09:00,
2013-08-20 00:15:00,71.2,64.0,29.82,North,0,1.0,0.0,78,0.00,,---,0.00,VWS V14.00,2013-08-20 05:15:00,
2013-08-20 00:20:00,71.2,64.0,29.85,North,0,3.0,3.0,78,0.00,,---,0.00,VWS V14.00,2013-08-20 05:20:00,
2013-08-20 00:26:00,70.9,63.7,29.85,North,0,4.1,4.1,78,0.00,,---,0.00,VWS V14.00,2013-08-20 05:26:00,
2013-08-20 00:31:00,70.9,63.7,29.85,North,0,3.0,3.0,78,0.00,,---,0.00,VWS V14.00,2013-08-20 05:31:00,
2013-08-20 00:37:00,70.7,63.5,29.85,North,0,1.0,0.0,78,0.00,,---,0.00,VWS V14.00,2013-08-20 05:37:00,
2013-08-20 00:42:00,70.7,63.5,29.85,North,0,1.0,1.3,78,0.00,,---,0.00,VWS V14.00,2013-08-20 05:42:00,
2013-08-20 00:47:00,70.7,63.5,29.85,North,0,2.7,2.7,78,0.00,,---,0.00,VWS V14.00,2013-08-20 05:47:00,
2013-08-20 00:53:00,70.5,63.7,29.85,North,0,1.0,0.0,79,0.00,,---,0.00,VWS V14.00,2013-08-20 05:53:00,
2013-08-20 00:59:00,70.5,63.7,29.85,North,0,3.0,3.0,79,0.00,,---,0.00,VWS V14.00,2013-08-20 05:59:00,
2013-08-20 01:05:00,70.5,63.7,29.82,North,0,1.0,0.0,79,0.00,,---,0.00,VWS V14.00,2013-08-20 06:05:00,
2013-08-20 01:11:00,70.3,63.5,29.82,North,0,1.0,0.0,79,0.00,,---,0.00,VWS V14.00,2013-08-20 06:11:00,
2013-08-20 01:16:00,70.2,63.3,29.82,North,0,1.0,0.0,79,0.00,,---,0.00,VWS V14.00,2013-08-20 06:16:00,
2013-08-20 01:22:00,70.2,63.3,29.82,North,0,2.4,2.4,79,0.00,,---,0.00,VWS V14.00,2013-08-20 06:22:00,
2013-08-20 01:27:00,70.2,63.3,29.82,North,0,2.4,2.4,79,0.00,,---,0.00,VWS V14.00,2013-08-20 06:27:00,
2013-08-20 01:33:00,70.2,63.7,29.82,NNW,338,2.4,2.5,80,0.00,,---,0.00,VWS V14.00,2013-08-20 06:33:00,
2013-08-20 01:39:00,70.0,63.5,29.82,NNW,338,2.4,2.4,80,0.00,,---,0.00,VWS V14.00,2013-08-20 06:39:00,
2013-08-20 01:45:00,70.0,63.5,29.82,NNW,338,1.0,0.0,80,0.00,,---,0.00,VWS V14.00,2013-08-20 06:45:00,
2013-08-20 01:51:00,69.8,63.4,29.82,NNW,338,1.0,0.0,80,0.00,,---,0.00,VWS V14.00,2013-08-20 06:51:00,
2013-08-20 01:57:00,69.8,63.4,29.82,NNW,338,1.0,0.0,80,0.00,,---,0.00,VWS V14.00,2013-08-20 06:57:00,
2013-08-20 02:03:00,69.6,63.2,29.82,NNW,338,1.0,0.0,80,0.00,,---,0.00,VWS V14.00,2013-08-20 07:03:00,
2013-08-20 02:08:00,69.6,63.2,29.82,NNW,338,1.0,0.0,80,0.00,,---,0.00,VWS V14.00,2013-08-20 07:08:00,
2013-08-20 02:14:00,69.4,63.4,29.82,NNW,338,1.0,0.0,81,0.00,,---,0.00,VWS V14.00,2013-08-20 07:14:00,
2013-08-20 02:19:00,69.4,63.0,29.82,NNW,338,2.7,2.7,80,0.00,,---,0.00,VWS V14.00,2013-08-20 07:19:00,
2013-08-20 02:25:00,69.4,63.4,29.82,NNW,338,2.4,2.4,81,0.00,,---,0.00,VWS V14.00,2013-08-20 07:25:00,
2013-08-20 02:31:00,69.3,63.2,29.82,NNW,338,1.0,0.0,81,0.00,,---,0.00,VWS V14.00,2013-08-20 07:31:00,
2013-08-20 02:36:00,69.3,63.2,29.82,NNW,338,2.4,2.4,81,0.00,,---,0.00,VWS V14.00,2013-08-20 07:36:00,
2013-08-20 02:42:00,69.3,63.2,29.82,NNW,338,2.1,2.1,81,0.00,,---,0.00,VWS V14.00,2013-08-20 07:42:00,
2013-08-20 02:47:00,69.3,63.2,29.82,NNW,338,1.0,0.0,81,0.00,,---,0.00,VWS V14.00,2013-08-20 07:47:00,
2013-08-20 02:53:00,69.3,63.2,29.82,NNW,338,2.4,2.4,81,0.00,,---,0.00,VWS V14.00,2013-08-20 07:53:00,
2013-08-20 02:59:00,69.1,63.0,29.82,NNW,338,2.7,2.7,81,0.00,,---,0.00,VWS V14.00,2013-08-20 07:59:00,
2013-08-20 03:04:00,69.1,63.0,29.82,NNW,338,2.4,2.4,81,0.00,,---,0.00,VWS V14.00,2013-08-20 08:04:00,
2013-08-20 03:10:00,69.1,63.4,29.82,NNW,338,1.0,0.0,82,0.00,,---,0.00,VWS V14.00,2013-08-20 08:10:00,
2013-08-20 03:15:00,69.1,63.4,29.82,NNW,338,2.1,2.1,82,0.00,,---,0.00,VWS V14.00,2013-08-20 08:15:00,
2013-08-20 03:20:00,69.1,63.4,29.82,NNW,338,1.0,0.0,82,0.00,,---,0.00,VWS V14.00,2013-08-20 08:20:00,
2013-08-20 03:25:00,69.1,63.4,29.82,NNW,338,2.1,2.1,82,0.00,,---,0.00,VWS V14.00,2013-08-20 08:25:00,
2013-08-20 03:30:00,69.1,63.4,29.82,NNW,338,2.7,2.7,82,0.00,,---,0.00,VWS V14.00,2013-08-20 08:30:00,
2013-08-20 03:36:00,69.1,63.4,29.82,NNW,338,3.5,3.5,82,0.00,,---,0.00,VWS V14.00,2013-08-20 08:36:00,
2013-08-20 03:42:00,68.9,63.2,29.82,NNW,338,1.0,0.0,82,0.00,,---,0.00,VWS V14.00,2013-08-20 08:42:00,
2013-08-20 03:48:00,68.9,63.2,29.82,NNW,338,1.0,0.0,82,0.00,,---,0.00,VWS V14.00,2013-08-20 08:48:00,
2013-08-20 03:54:00,68.9,63.2,29.82,NNW,338,3.0,3.0,82,0.00,,---,0.00,VWS V14.00,2013-08-20 08:54:00,
2013-08-20 03:59:00,68.9,63.2,29.82,NNW,338,2.1,2.1,82,0.00,,---,0.00,VWS V14.00,2013-08-20 08:59:00,
2013-08-20 04:04:00,68.7,63.0,29.82,NNW,338,1.0,0.0,82,0.00,,---,0.00,VWS V14.00,2013-08-20 09:04:00,
2013-08-20 04:10:00,68.7,63.0,29.82,NNW,338,1.0,0.0,82,0.00,,---,0.00,VWS V14.00,2013-08-20 09:10:00,
2013-08-20 04:15:00,68.7,63.3,29.82,NNW,338,1.0,1.1,83,0.00,,---,0.00,VWS V14.00,2013-08-20 09:15:00,
2013-08-20 04:21:00,68.7,63.3,29.82,NNW,338,1.0,0.0,83,0.00,,---,0.00,VWS V14.00,2013-08-20 09:21:00,
2013-08-20 04:27:00,68.5,63.2,29.82,NNW,338,2.7,2.7,83,0.00,,---,0.00,VWS V14.00,2013-08-20 09:27:00,
2013-08-20 04:33:00,68.5,63.2,29.82,NNW,338,2.4,2.4,83,0.00,,---,0.00,VWS V14.00,2013-08-20 09:33:00,
2013-08-20 04:38:00,68.4,62.7,29.82,NNW,338,2.4,2.4,82,0.00,,---,0.00,VWS V14.00,2013-08-20 09:38:00,
2013-08-20 04:43:00,68.4,63.0,29.82,NNW,338,1.0,0.0,83,0.00,,---,0.00,VWS V14.00,2013-08-20 09:43:00,
2013-08-20 04:48:00,68.4,63.0,29.82,NNW,338,2.7,2.7,83,0.00,,---,0.00,VWS V14.00,2013-08-20 09:48:00,
2013-08-20 04:53:00,68.4,63.0,29.85,NNW,338,2.7,2.7,83,0.00,,---,0.00,VWS V14.00,2013-08-20 09:53:00,
2013-08-20 04:59:00,68.4,63.0,29.85,NNW,338,2.7,2.7,83,0.00,,---,0.00,VWS V14.00,2013-08-20 09:59:00,
2013-08-20 05:05:00,68.2,62.8,29.82,NNW,338,1.0,1.0,83,0.00,,---,0.00,VWS V14.00,2013-08-20 10:05:00,
2013-08-20 05:10:00,68.4,63.0,29.82,NNW,338,3.5,3.5,83,0.00,,---,0.00,VWS V14.00,2013-08-20 10:10:00,
2013-08-20 05:16:00,68.2,62.8,29.82,NNW,338,1.0,0.0,83,0.00,,---,0.00,VWS V14.00,2013-08-20 10:16:00,
2013-08-20 05:21:00,68.2,62.8,29.82,NNW,338,2.7,2.7,83,0.00,,---,0.00,VWS V14.00,2013-08-20 10:21:00,
2013-08-20 05:27:00,68.2,62.8,29.82,NNW,338,3.0,3.0,83,0.00,,---,0.00,VWS V14.00,2013-08-20 10:27:00,
2013-08-20 05:33:00,68.2,63.2,29.82,NNW,338,1.0,0.0,84,0.00,,---,0.00,VWS V14.00,2013-08-20 10:33:00,
2013-08-20 05:38:00,68.2,63.2,29.82,NNW,338,1.0,0.0,84,0.00,,---,0.00,VWS V14.00,2013-08-20 10:38:00,
2013-08-20 05:44:00,68.2,63.2,29.82,NNW,338,1.0,0.0,84,0.00,,---,0.00,VWS V14.00,2013-08-20 10:44:00,
2013-08-20 05:49:00,68.4,63.3,29.82,NNW,338,2.4,2.4,84,0.00,,---,0.00,VWS V14.00,2013-08-20 10:49:00,
2013-08-20 05:55:00,68.2,63.2,29.85,NNW,338,1.0,0.0,84,0.00,,---,0.00,VWS V14.00,2013-08-20 10:55:00,
2013-08-20 06:00:00,68.2,63.2,29.85,NNW,338,1.0,0.0,84,0.00,,---,0.00,VWS V14.00,2013-08-20 11:00:00,
2013-08-20 06:05:00,68.2,63.5,29.85,NNW,338,1.0,1.1,85,0.00,,---,0.00,VWS V14.00,2013-08-20 11:05:00,
2013-08-20 06:10:00,68.2,63.5,29.85,NNW,338,1.0,0.0,85,0.00,,---,0.00,VWS V14.00,2013-08-20 11:10:00,
2013-08-20 06:15:00,68.2,63.5,29.85,NNW,338,1.0,0.0,85,0.00,,---,0.00,VWS V14.00,2013-08-20 11:15:00,
2013-08-20 06:21:00,68.2,63.5,29.85,NNW,338,1.0,0.0,85,0.00,,---,0.00,VWS V14.00,2013-08-20 11:21:00,
2013-08-20 06:26:00,68.2,63.5,29.85,NNW,338,1.0,0.0,85,0.00,,---,0.00,VWS V14.00,2013-08-20 11:26:00,
2013-08-20 06:31:00,68.2,63.5,29.85,NNW,338,1.0,0.0,85,0.00,,---,0.00,VWS V14.00,2013-08-20 11:31:00,
2013-08-20 06:37:00,68.2,63.5,29.85,NNW,338,1.0,0.0,85,0.00,,---,0.00,VWS V14.00,2013-08-20 11:37:00,
2013-08-20 06:43:00,68.2,63.5,29.85,NNW,338,3.0,3.0,85,0.00,,---,0.00,VWS V14.00,2013-08-20 11:43:00,
2013-08-20 06:48:00,68.2,63.5,29.85,NNW,338,1.0,0.0,85,0.00,,---,0.00,VWS V14.00,2013-08-20 11:48:00,
2013-08-20 06:54:00,68.2,63.8,29.85,NNW,338,2.4,2.4,86,0.00,,---,0.00,VWS V14.00,2013-08-20 11:54:00,
2013-08-20 07:00:00,68.4,64.0,29.85,NNW,338,3.0,3.0,86,0.00,,---,0.00,VWS V14.00,2013-08-20 12:00:00,
2013-08-20 07:05:00,68.5,64.2,29.85,NNW,338,2.7,2.7,86,0.00,,---,0.00,VWS V14.00,2013-08-20 12:05:00,
2013-08-20 07:11:00,68.5,64.2,29.85,NNW,338,3.0,3.0,86,0.00,,---,0.00,VWS V14.00,2013-08-20 12:11:00,
2013-08-20 07:16:00,68.7,64.4,29.85,NNW,338,4.1,4.1,86,0.00,,---,0.00,VWS V14.00,2013-08-20 12:16:00,
2013-08-20 07:22:00,68.9,64.6,29.85,NNW,338,1.0,0.0,86,0.00,,---,0.00,VWS V14.00,2013-08-20 12:22:00,
2013-08-20 07:27:00,69.1,64.7,29.85,NNW,338,1.0,0.0,86,0.00,,---,0.00,VWS V14.00,2013-08-20 12:27:00,
2013-08-20 07:33:00,69.4,65.4,29.85,NNW,338,3.0,3.0,87,0.00,,---,0.00,VWS V14.00,2013-08-20 12:33:00,
2013-08-20 07:39:00,69.6,65.6,29.85,NNW,338,2.7,2.7,87,0.00,,---,0.00,VWS V14.00,2013-08-20 12:39:00,
2013-08-20 07:44:00,70.0,65.9,29.85,NNW,338,2.7,2.7,87,0.00,,---,0.00,VWS V14.00,2013-08-20 12:44:00,
2013-08-20 07:50:00,70.3,66.3,29.85,North,0,4.9,4.9,87,0.00,,---,0.00,VWS V14.00,2013-08-20 12:50:00,
2013-08-20 07:56:00,70.7,66.7,29.85,North,0,3.0,3.0,87,0.00,,---,0.00,VWS V14.00,2013-08-20 12:56:00,
2013-08-20 08:01:00,70.9,66.8,29.85,North,0,4.6,4.6,87,0.00,,---,0.00,VWS V14.00,2013-08-20 13:01:00,
2013-08-20 08:07:00,71.2,67.2,29.88,North,0,2.4,2.4,87,0.00,,---,0.00,VWS V14.00,2013-08-20 13:07:00,
2013-08-20 08:12:00,71.6,67.5,29.88,NNW,338,3.5,3.5,87,0.00,,---,0.00,VWS V14.00,2013-08-20 13:12:00,
2013-08-20 08:18:00,72.0,67.9,29.88,NNW,338,2.4,2.4,87,0.00,,---,0.00,VWS V14.00,2013-08-20 13:18:00,
2013-08-20 08:23:00,72.3,68.2,29.88,NNW,338,1.0,1.0,87,0.00,,---,0.00,VWS V14.00,2013-08-20 13:23:00,
2013-08-20 08:29:00,72.7,68.6,29.88,SSE,158,1.0,1.3,87,0.00,,---,0.00,VWS V14.00,2013-08-20 13:29:00,
2013-08-20 08:35:00,72.9,68.8,29.88,North,0,2.4,2.4,87,0.00,,---,0.00,VWS V14.00,2013-08-20 13:35:00,
2013-08-20 08:40:00,73.0,68.9,29.88,North,0,5.5,5.5,87,0.00,,---,0.00,VWS V14.00,2013-08-20 13:40:00,
2013-08-20 08:46:00,73.4,69.0,29.88,NNW,338,1.0,1.1,86,0.00,,---,0.00,VWS V14.00,2013-08-20 13:46:00,
2013-08-20 08:51:00,73.8,69.3,29.88,NNW,338,2.4,2.4,86,0.00,,---,0.00,VWS V14.00,2013-08-20 13:51:00,
2013-08-20 08:57:00,73.9,69.5,29.88,NNW,338,4.1,4.1,86,0.00,,---,0.00,VWS V14.00,2013-08-20 13:57:00,
2013-08-20 09:03:00,74.1,69.7,29.88,ENE,68,1.0,0.0,86,0.00,,---,0.00,VWS V14.00,2013-08-20 14:03:00,
2013-08-20 09:08:00,74.5,70.0,29.88,North,0,4.6,4.6,86,0.00,,---,0.00,VWS V14.00,2013-08-20 14:08:00,
2013-08-20 09:14:00,74.8,70.4,29.88,North,0,4.9,4.9,86,0.00,,---,0.00,VWS V14.00,2013-08-20 14:14:00,
2013-08-20 09:19:00,74.8,70.4,29.88,NNW,338,4.4,4.4,86,0.00,,---,0.00,VWS V14.00,2013-08-20 14:19:00,
2013-08-20 09:25:00,75.4,70.6,29.88,NE,45,2.7,2.7,85,0.00,,---,0.00,VWS V14.00,2013-08-20 14:25:00,
2013-08-20 09:30:00,75.9,71.1,29.88,SE,135,4.1,4.1,85,0.00,,---,0.00,VWS V14.00,2013-08-20 14:30:00,
2013-08-20 09:35:00,76.3,71.1,29.88,ESE,112,2.7,2.7,84,0.00,,---,0.00,VWS V14.00,2013-08-20 14:35:00,
2013-08-20 09:40:00,76.5,71.3,29.88,ENE,68,1.0,1.0,84,0.00,,---,0.00,VWS V14.00,2013-08-20 14:40:00,
2013-08-20 09:46:00,77.0,71.8,29.88,NW,315,2.7,2.7,84,0.00,,---,0.00,VWS V14.00,2013-08-20 14:46:00,
2013-08-20 09:52:00,77.4,71.4,29.88,NW,315,3.0,3.0,82,0.00,,---,0.00,VWS V14.00,2013-08-20 14:52:00,
2013-08-20 09:57:00,77.4,70.3,29.88,NE,45,2.7,2.7,79,0.00,,---,0.00,VWS V14.00,2013-08-20 14:57:00,
2013-08-20 10:03:00,77.7,71.1,29.88,NNW,338,2.4,2.4,80,0.00,,---,0.00,VWS V14.00,2013-08-20 15:03:00,
2013-08-20 10:08:00,77.9,71.2,29.88,NNW,338,4.4,4.4,80,0.00,,---,0.00,VWS V14.00,2013-08-20 15:08:00,
2013-08-20 10:14:00,78.1,71.0,29.88,SSE,158,1.0,2.2,79,0.00,,---,0.00,VWS V14.00,2013-08-20 15:14:00,
2013-08-20 10:20:00,78.3,70.5,29.88,North,0,4.4,4.4,77,0.00,,---,0.00,VWS V14.00,2013-08-20 15:20:00,
2013-08-20 10:25:00,78.4,70.6,29.88,NW,315,2.7,2.7,77,0.00,,---,0.00,VWS V14.00,2013-08-20 15:25:00,
2013-08-20 10:31:00,78.8,71.0,29.88,NW,315,2.4,2.4,77,0.00,,---,0.00,VWS V14.00,2013-08-20 15:31:00,
2013-08-20 10:36:00,78.8,70.2,29.88,North,0,2.7,2.9,75,0.00,,---,0.00,VWS V14.00,2013-08-20 15:36:00,
2013-08-20 10:42:00,79.2,70.2,29.88,SE,135,4.6,4.6,74,0.00,,---,0.00,VWS V14.00,2013-08-20 15:42:00,
2013-08-20 10:48:00,79.5,70.9,29.88,North,0,3.0,3.0,75,0.00,,---,0.00,VWS V14.00,2013-08-20 15:48:00,
2013-08-20 10:53:00,79.7,70.3,29.88,WSW,248,3.5,3.5,73,0.00,,---,0.00,VWS V14.00,2013-08-20 15:53:00,
2013-08-20 10:59:00,80.4,71.4,29.88,NW,315,3.0,3.1,74,0.00,,---,0.00,VWS V14.00,2013-08-20 15:59:00,
2013-08-20 11:04:00,80.6,71.2,29.88,SE,135,3.0,4.3,73,0.00,,---,0.00,VWS V14.00,2013-08-20 16:04:00,
2013-08-20 11:10:00,80.8,70.1,29.88,NE,45,2.1,2.5,70,0.00,,---,0.00,VWS V14.00,2013-08-20 16:10:00,
2013-08-20 11:16:00,81.0,69.0,29.88,WNW,292,3.0,3.0,67,0.00,,---,0.00,VWS V14.00,2013-08-20 16:16:00,
2013-08-20 11:21:00,81.3,69.3,29.88,East,90,4.1,4.1,67,0.00,,---,0.00,VWS V14.00,2013-08-20 16:21:00,
2013-08-20 11:27:00,81.7,69.7,29.88,North,0,4.4,4.4,67,0.00,,---,0.00,VWS V14.00,2013-08-20 16:27:00,
2013-08-20 11:32:00,82.0,69.1,29.88,East,90,3.0,3.0,65,0.00,,---,0.00,VWS V14.00,2013-08-20 16:32:00,
2013-08-20 11:39:00,82.0,68.7,29.91,ESE,112,3.0,3.6,64,0.00,,---,0.00,VWS V14.00,2013-08-20 16:39:00,
2013-08-20 11:45:00,81.9,68.0,29.91,NNW,338,3.5,3.5,63,0.00,,---,0.00,VWS V14.00,2013-08-20 16:45:00,
2013-08-20 11:51:00,81.5,67.7,29.88,North,0,2.7,2.7,63,0.00,,---,0.00,VWS V14.00,2013-08-20 16:51:00,
2013-08-20 11:56:00,81.7,67.9,29.88,North,0,2.7,2.7,63,0.00,,---,0.00,VWS V14.00,2013-08-20 16:56:00,
2013-08-20 12:02:00,82.2,66.0,29.88,North,0,4.6,4.6,58,0.00,,---,0.00,VWS V14.00,2013-08-20 17:02:00,
2013-08-20 12:07:00,82.4,65.7,29.88,NNW,338,4.4,4.4,57,0.00,,---,0.00,VWS V14.00,2013-08-20 17:07:00,
2013-08-20 12:13:00,82.6,66.3,29.88,ENE,68,4.4,5.4,58,0.00,,---,0.00,VWS V14.00,2013-08-20 17:13:00,
2013-08-20 12:19:00,82.9,66.2,29.88,NNE,22,2.7,2.7,57,0.00,,---,0.00,VWS V14.00,2013-08-20 17:19:00,
2013-08-20 12:25:00,83.1,63.1,29.88,SSE,158,3.5,3.5,51,0.00,,---,0.00,VWS V14.00,2013-08-20 17:25:00,
2013-08-20 12:30:00,83.5,66.2,29.88,WNW,292,2.7,3.1,56,0.00,,---,0.00,VWS V14.00,2013-08-20 17:30:00,
2013-08-20 12:36:00,83.5,66.2,29.88,South,180,4.4,5.6,56,0.00,,---,0.00,VWS V14.00,2013-08-20 17:36:00,
2013-08-20 12:41:00,83.5,65.6,29.88,East,90,8.3,8.3,55,0.00,,---,0.00,VWS V14.00,2013-08-20 17:41:00,
2013-08-20 12:47:00,84.0,65.6,29.88,North,0,2.1,5.6,54,0.00,,---,0.00,VWS V14.00,2013-08-20 17:47:00,
2013-08-20 12:52:00,84.0,66.7,29.88,SE,135,7.7,7.7,56,0.00,,---,0.00,VWS V14.00,2013-08-20 17:52:00,
2013-08-20 12:58:00,84.0,65.1,29.88,ESE,112,6.9,6.9,53,0.00,,---,0.00,VWS V14.00,2013-08-20 17:58:00,
2013-08-20 13:04:00,84.2,65.8,29.88,East,90,5.8,5.8,54,0.00,,---,0.00,VWS V14.00,2013-08-20 18:04:00,
2013-08-20 13:09:00,84.2,64.1,29.88,ESE,112,4.4,4.4,51,0.00,,---,0.00,VWS V14.00,2013-08-20 18:09:00,
2013-08-20 13:15:00,84.0,59.1,29.88,NNW,338,2.7,3.1,43,0.00,,---,0.00,VWS V14.00,2013-08-20 18:15:00,
2013-08-20 13:20:00,84.2,62.4,29.85,SE,135,6.9,6.9,48,0.00,,---,0.00,VWS V14.00,2013-08-20 18:20:00,
2013-08-20 13:25:00,84.4,64.3,29.85,ESE,112,11.1,11.1,51,0.00,,---,0.00,VWS V14.00,2013-08-20 18:25:00,
2013-08-20 13:31:00,84.6,65.0,29.85,SE,135,5.8,5.8,52,0.00,,---,0.00,VWS V14.00,2013-08-20 18:31:00,
2013-08-20 13:36:00,84.7,64.1,29.85,East,90,2.4,2.9,50,0.00,,---,0.00,VWS V14.00,2013-08-20 18:36:00,
2013-08-20 13:41:00,84.7,63.5,29.85,SE,135,4.9,4.9,49,0.00,,---,0.00,VWS V14.00,2013-08-20 18:41:00,
2013-08-20 13:47:00,84.7,61.1,29.85,North,0,4.1,4.1,45,0.00,,---,0.00,VWS V14.00,2013-08-20 18:47:00,
2013-08-20 13:52:00,84.7,63.5,29.85,SE,135,7.7,7.7,49,0.00,,---,0.00,VWS V14.00,2013-08-20 18:52:00,
2013-08-20 13:58:00,84.9,63.1,29.85,East,90,4.1,4.1,48,0.00,,---,0.00,VWS V14.00,2013-08-20 18:58:00,
2013-08-20 14:03:00,84.9,62.5,29.85,ESE,112,4.6,4.6,47,0.00,,---,0.00,VWS V14.00,2013-08-20 19:03:00,
2013-08-20 14:08:00,85.1,63.2,29.85,ESE,112,8.3,8.3,48,0.00,,---,0.00,VWS V14.00,2013-08-20 19:08:00,
2013-08-20 14:13:00,85.5,64.7,29.85,ENE,68,5.8,5.8,50,0.00,,---,0.00,VWS V14.00,2013-08-20 19:13:00,
2013-08-20 14:19:00,85.5,62.3,29.85,NNW,338,4.9,4.9,46,0.00,,---,0.00,VWS V14.00,2013-08-20 19:19:00,
2013-08-20 14:25:00,85.3,63.4,29.85,North,0,4.1,4.1,48,0.00,,---,0.00,VWS V14.00,2013-08-20 19:25:00,
2013-08-20 14:30:00,85.3,63.4,29.85,NW,315,3.0,3.0,48,0.00,,---,0.00,VWS V14.00,2013-08-20 19:30:00,
2013-08-20 14:36:00,85.6,62.5,29.85,NW,315,2.7,6.0,46,0.00,,---,0.00,VWS V14.00,2013-08-20 19:36:00,
2013-08-20 14:41:00,85.5,61.7,29.85,SE,135,3.5,3.5,45,0.00,,---,0.00,VWS V14.00,2013-08-20 19:41:00,
2013-08-20 14:47:00,85.5,62.3,29.85,ESE,112,7.2,7.2,46,0.00,,---,0.00,VWS V14.00,2013-08-20 19:47:00,
2013-08-20 14:53:00,85.6,63.1,29.82,SSE,158,4.9,4.9,47,0.00,,---,0.00,VWS V14.00,2013-08-20 19:53:00,
2013-08-20 14:58:00,85.8,63.3,29.82,SE,135,4.1,4.1,47,0.00,,---,0.00,VWS V14.00,2013-08-20 19:58:00,
2013-08-20 15:04:00,86.2,63.0,29.82,NW,315,3.8,3.8,46,0.00,,---,0.00,VWS V14.00,2013-08-20 20:04:00,
2013-08-20 15:09:00,86.0,60.9,29.82,NW,315,2.7,5.4,43,0.00,,---,0.00,VWS V14.00,2013-08-20 20:09:00,
2013-08-20 15:15:00,85.6,61.2,29.82,NW,315,2.4,2.4,44,0.00,,---,0.00,VWS V14.00,2013-08-20 20:15:00,
2013-08-20 15:21:00,85.5,61.1,29.82,NNW,338,2.1,2.1,44,0.00,,---,0.00,VWS V14.00,2013-08-20 20:21:00,
2013-08-20 15:27:00,85.8,62.0,29.82,NE,45,5.2,5.2,45,0.00,,---,0.00,VWS V14.00,2013-08-20 20:27:00,
2013-08-20 15:32:00,85.5,60.4,29.82,ESE,112,3.0,3.0,43,0.00,,---,0.00,VWS V14.00,2013-08-20 20:32:00,
2013-08-20 15:38:00,85.5,61.1,29.82,NE,45,2.4,2.4,44,0.00,,---,0.00,VWS V14.00,2013-08-20 20:38:00,
2013-08-20 15:43:00,85.6,61.2,29.82,SE,135,6.0,6.0,44,0.00,,---,0.00,VWS V14.00,2013-08-20 20:43:00,
2013-08-20 15:49:00,85.8,60.8,29.82,NW,315,2.7,2.9,43,0.00,,---,0.00,VWS V14.00,2013-08-20 20:49:00,
2013-08-20 15:54:00,85.8,61.4,29.82,SE,135,4.4,4.4,44,0.00,,---,0.00,VWS V14.00,2013-08-20 20:54:00,
2013-08-20 16:00:00,85.8,61.4,29.82,West,270,2.7,3.4,44,0.00,,---,0.00,VWS V14.00,2013-08-20 21:00:00,
2013-08-20 16:05:00,86.0,60.9,29.82,East,90,2.7,4.0,43,0.00,,---,0.00,VWS V14.00,2013-08-20 21:05:00,
2013-08-20 16:11:00,86.2,61.1,29.82,SE,135,2.4,2.7,43,0.00,,---,0.00,VWS V14.00,2013-08-20 21:11:00,
2013-08-20 16:17:00,85.6,59.9,29.82,WSW,248,1.0,2.2,42,0.00,,---,0.00,VWS V14.00,2013-08-20 21:17:00,
2013-08-20 16:22:00,85.5,60.4,29.82,SE,135,2.1,2.2,43,0.00,,---,0.00,VWS V14.00,2013-08-20 21:22:00,
2013-08-20 16:28:00,85.3,60.3,29.82,NNW,338,2.1,2.1,43,0.00,,---,0.00,VWS V14.00,2013-08-20 21:28:00,
2013-08-20 16:33:00,85.1,60.1,29.82,NNW,338,1.0,1.1,43,0.00,,---,0.00,VWS V14.00,2013-08-20 21:33:00,
2013-08-20 16:39:00,84.9,59.3,29.82,ENE,68,1.0,1.0,42,0.00,,---,0.00,VWS V14.00,2013-08-20 21:39:00,
2013-08-20 16:45:00,84.6,59.0,29.82,NNE,22,1.0,0.0,42,0.00,,---,0.00,VWS V14.00,2013-08-20 21:45:00,
2013-08-20 16:51:00,84.6,59.6,29.82,North,0,2.7,2.7,43,0.00,,---,0.00,VWS V14.00,2013-08-20 21:51:00,
2013-08-20 16:56:00,84.2,60.0,29.82,NW,315,3.0,3.0,44,0.00,,---,0.00,VWS V14.00,2013-08-20 21:56:00,
2013-08-20 17:01:00,84.4,61.4,29.82,North,0,3.8,4.3,46,0.00,,---,0.00,VWS V14.00,2013-08-20 22:01:00,
2013-08-20 17:07:00,84.7,61.1,29.79,NNW,338,4.9,4.9,45,0.00,,---,0.00,VWS V14.00,2013-08-20 22:07:00,
2013-08-20 17:13:00,84.9,61.2,29.79,NW,315,3.5,3.5,45,0.00,,---,0.00,VWS V14.00,2013-08-20 22:13:00,
2013-08-20 17:18:00,84.9,61.8,29.79,NW,315,3.0,3.0,46,0.00,,---,0.00,VWS V14.00,2013-08-20 22:18:00,
2013-08-20 17:24:00,84.9,61.8,29.82,North,0,2.4,2.5,46,0.00,,---,0.00,VWS V14.00,2013-08-20 22:24:00,
2013-08-20 17:29:00,84.7,62.3,29.82,SE,135,3.5,3.5,47,0.00,,---,0.00,VWS V14.00,2013-08-20 22:29:00,
2013-08-20 17:35:00,84.7,61.7,29.82,West,270,2.4,2.4,46,0.00,,---,0.00,VWS V14.00,2013-08-20 22:35:00,
2013-08-20 17:41:00,85.1,62.6,29.82,SE,135,6.0,6.0,47,0.00,,---,0.00,VWS V14.00,2013-08-20 22:41:00,
2013-08-20 17:46:00,85.5,63.0,29.82,West,270,1.0,1.1,47,0.00,,---,0.00,VWS V14.00,2013-08-20 22:46:00,
2013-08-20 17:52:00,85.5,62.3,29.82,SSE,158,5.2,5.2,46,0.00,,---,0.00,VWS V14.00,2013-08-20 22:52:00,
2013-08-20 17:57:00,85.6,62.5,29.82,SSW,202,3.8,4.0,46,0.00,,---,0.00,VWS V14.00,2013-08-20 22:57:00,
2013-08-20 18:02:00,85.6,62.5,29.82,SE,135,4.6,4.6,46,0.00,,---,0.00,VWS V14.00,2013-08-20 23:02:00,
2013-08-20 18:08:00,85.6,62.5,29.82,South,180,3.0,3.0,46,0.00,,---,0.00,VWS V14.00,2013-08-20 23:08:00,
2013-08-20 18:13:00,85.6,61.9,29.82,ENE,68,2.1,2.1,45,0.00,,---,0.00,VWS V14.00,2013-08-20 23:13:00,
2013-08-20 18:19:00,85.1,60.8,29.82,North,0,1.0,0.0,44,0.00,,---,0.00,VWS V14.00,2013-08-20 23:19:00,
2013-08-20 18:24:00,85.1,60.8,29.82,North,0,1.0,1.6,44,0.00,,---,0.00,VWS V14.00,2013-08-20 23:24:00,
2013-08-20 18:30:00,84.9,60.6,29.82,SE,135,4.1,4.1,44,0.00,,---,0.00,VWS V14.00,2013-08-20 23:30:00,
2013-08-20 18:35:00,84.7,61.1,29.82,SSW,202,1.0,1.6,45,0.00,,---,0.00,VWS V14.00,2013-08-20 23:35:00,
2013-08-20 18:41:00,84.6,60.9,29.82,SE,135,1.0,1.3,45,0.00,,---,0.00,VWS V14.00,2013-08-20 23:41:00,
2013-08-20 18:47:00,84.4,60.7,29.82,East,90,2.7,2.7,45,0.00,,---,0.00,VWS V14.00,2013-08-20 23:47:00,
2013-08-20 18:52:00,84.4,60.7,29.82,NW,315,1.0,0.0,45,0.00,,---,0.00,VWS V14.00,2013-08-20 23:52:00,
2013-08-20 18:57:00,84.2,60.6,29.82,North,0,3.5,3.5,45,0.00,,---,0.00,VWS V14.00,2013-08-20 23:57:00,
2013-08-20 19:03:00,84.0,60.4,29.82,NNW,338,4.1,4.1,45,0.00,,---,0.00,VWS V14.00,2013-08-21 00:03:00,
2013-08-20 19:09:00,83.8,60.9,29.82,North,0,4.1,4.1,46,0.00,,---,0.00,VWS V14.00,2013-08-21 00:09:00,
2013-08-20 19:14:00,83.7,60.7,29.82,North,0,4.4,4.4,46,0.00,,---,0.00,VWS V14.00,2013-08-21 00:14:00,
2013-08-20 19:20:00,83.5,60.5,29.82,North,0,3.0,3.0,46,0.00,,---,0.00,VWS V14.00,2013-08-21 00:20:00,
2013-08-20 19:26:00,83.3,60.4,29.82,NNW,338,3.5,3.5,46,0.00,,---,0.00,VWS V14.00,2013-08-21 00:26:00,
2013-08-20 19:31:00,83.1,60.8,29.82,North,0,2.4,2.4,47,0.00,,---,0.00,VWS V14.00,2013-08-21 00:31:00,
2013-08-20 19:36:00,82.8,60.5,29.82,North,0,3.0,3.0,47,0.00,,---,0.00,VWS V14.00,2013-08-21 00:36:00,
2013-08-20 19:42:00,82.6,60.3,29.82,NNW,338,1.0,1.6,47,0.00,,---,0.00,VWS V14.00,2013-08-21 00:42:00,
2013-08-20 19:48:00,82.2,61.2,29.82,NNW,338,2.7,2.7,49,0.00,,---,0.00,VWS V14.00,2013-08-21 00:48:00,
2013-08-20 19:54:00,82.0,61.0,29.82,NNW,338,2.4,2.4,49,0.00,,---,0.00,VWS V14.00,2013-08-21 00:54:00,
2013-08-20 19:59:00,81.9,61.4,29.82,NNW,338,2.4,2.4,50,0.00,,---,0.00,VWS V14.00,2013-08-21 00:59:00,
2013-08-20 20:05:00,81.5,61.7,29.82,NNW,338,2.4,2.4,51,0.00,,---,0.00,VWS V14.00,2013-08-21 01:05:00,
2013-08-20 20:10:00,81.3,62.0,29.82,NNW,338,1.0,0.0,52,0.00,,---,0.00,VWS V14.00,2013-08-21 01:10:00,
2013-08-20 20:16:00,81.0,62.2,29.82,NNW,338,1.0,0.0,53,0.00,,---,0.00,VWS V14.00,2013-08-21 01:16:00,
2013-08-20 20:20:00,80.8,62.6,29.82,NNW,338,1.0,0.0,54,0.00,,---,0.00,VWS V14.00,2013-08-21 01:20:00,
2013-08-20 20:26:00,80.4,62.8,29.82,NNW,338,1.0,0.0,55,0.00,,---,0.00,VWS V14.00,2013-08-21 01:26:00,
2013-08-20 20:31:00,80.2,63.1,29.82,NNW,338,1.0,0.0,56,0.00,,---,0.00,VWS V14.00,2013-08-21 01:31:00,
2013-08-20 20:37:00,79.9,63.3,29.82,NNW,338,1.0,0.0,57,0.00,,---,0.00,VWS V14.00,2013-08-21 01:37:00,
2013-08-20 20:43:00,79.5,63.5,29.82,NNW,338,1.0,0.0,58,0.00,,---,0.00,VWS V14.00,2013-08-21 01:43:00,
2013-08-20 20:48:00,79.3,63.8,29.82,NNW,338,1.0,0.0,59,0.00,,---,0.00,VWS V14.00,2013-08-21 01:48:00,
2013-08-20 20:54:00,79.0,63.9,29.82,NNW,338,1.0,0.0,60,0.00,,---,0.00,VWS V14.00,2013-08-21 01:54:00,
2013-08-20 21:00:00,78.8,63.8,29.82,NNW,338,1.0,0.0,60,0.00,,---,0.00,VWS V14.00,2013-08-21 02:00:00,
2013-08-20 21:05:00,78.6,64.1,29.85,NNW,338,1.0,0.0,61,0.00,,---,0.00,VWS V14.00,2013-08-21 02:05:00,
2013-08-20 21:11:00,78.4,64.8,29.85,NNW,338,1.0,0.0,63,0.00,,---,0.00,VWS V14.00,2013-08-21 02:11:00,
2013-08-20 21:17:00,78.3,64.6,29.85,NNW,338,2.4,2.4,63,0.00,,---,0.00,VWS V14.00,2013-08-21 02:17:00,
2013-08-20 21:22:00,78.1,64.9,29.85,NNW,338,1.0,0.0,64,0.00,,---,0.00,VWS V14.00,2013-08-21 02:22:00,
2013-08-20 21:28:00,78.1,65.4,29.85,NNW,338,2.4,2.4,65,0.00,,---,0.00,VWS V14.00,2013-08-21 02:28:00,
2013-08-20 21:33:00,77.9,65.6,29.85,NNW,338,2.7,2.7,66,0.00,,---,0.00,VWS V14.00,2013-08-21 02:33:00,
2013-08-20 21:38:00,77.7,65.9,29.85,NNW,338,3.0,3.0,67,0.00,,---,0.00,VWS V14.00,2013-08-21 02:38:00,
2013-08-20 21:43:00,77.5,65.7,29.85,NNW,338,2.1,2.1,67,0.00,,---,0.00,VWS V14.00,2013-08-21 02:43:00,
2013-08-20 21:49:00,77.4,66.0,29.85,NNW,338,2.4,2.4,68,0.00,,---,0.00,VWS V14.00,2013-08-21 02:49:00,
2013-08-20 21:54:00,77.4,66.0,29.85,NNW,338,1.0,0.0,68,0.00,,---,0.00,VWS V14.00,2013-08-21 02:54:00,
2013-08-20 22:00:00,77.2,66.2,29.85,NNW,338,1.0,0.0,69,0.00,,---,0.00,VWS V14.00,2013-08-21 03:00:00,
2013-08-20 22:05:00,77.0,66.1,29.85,NNW,338,1.0,0.0,69,0.00,,---,0.00,VWS V14.00,2013-08-21 03:05:00,
2013-08-20 22:11:00,76.8,66.3,29.85,NNW,338,2.7,2.7,70,0.00,,---,0.00,VWS V14.00,2013-08-21 03:11:00,
2013-08-20 22:16:00,76.6,66.1,29.85,NNW,338,2.1,2.1,70,0.00,,---,0.00,VWS V14.00,2013-08-21 03:16:00,
2013-08-20 22:21:00,76.5,66.4,29.85,NNW,338,2.4,2.4,71,0.00,,---,0.00,VWS V14.00,2013-08-21 03:21:00,
2013-08-20 22:27:00,76.3,66.2,29.85,NNW,338,1.0,1.0,71,0.00,,---,0.00,VWS V14.00,2013-08-21 03:27:00,
2013-08-20 22:32:00,76.3,66.6,29.85,NNW,338,1.0,0.0,72,0.00,,---,0.00,VWS V14.00,2013-08-21 03:32:00,
2013-08-20 22:37:00,76.3,66.6,29.85,NNW,338,1.0,0.0,72,0.00,,---,0.00,VWS V14.00,2013-08-21 03:37:00,
2013-08-20 22:43:00,76.1,66.8,29.85,NNW,338,1.0,0.0,73,0.00,,---,0.00,VWS V14.00,2013-08-21 03:43:00,
2013-08-20 22:49:00,75.9,66.7,29.85,SE,135,4.9,4.9,73,0.00,,---,0.00,VWS V14.00,2013-08-21 03:49:00,
2013-08-20 22:55:00,75.7,66.5,29.85,NE,45,2.1,2.1,73,0.00,,---,0.00,VWS V14.00,2013-08-21 03:55:00,
2013-08-20 23:00:00,75.6,66.7,29.85,NW,315,1.0,0.0,74,0.00,,---,0.00,VWS V14.00,2013-08-21 04:00:00,
2013-08-20 23:01:00,75.6,66.7,29.85,NW,315,1.0,0.0,74,0.00,,---,0.00,VWS V14.00,2013-08-21 04:01:00,
2013-08-20 23:04:00,75.4,66.5,29.85,NW,315,1.0,0.0,74,0.00,,---,0.00,VWS V14.00,2013-08-21 04:04:00,
2013-08-20 23:06:00,75.4,66.5,29.85,NW,315,1.0,0.0,74,0.00,,---,0.00,VWS V14.00,2013-08-21 04:06:00,
2013-08-20 23:07:00,75.4,66.5,29.85,NW,315,1.0,0.0,74,0.00,,---,0.00,VWS V14.00,2013-08-21 04:07:00,
2013-08-20 23:08:00,75.4,66.9,29.85,NW,315,1.0,0.0,75,0.00,,---,0.00,VWS V14.00,2013-08-21 04:08:00,
2013-08-20 23:14:00,75.4,66.9,29.85,NW,315,2.7,2.7,75,0.00,,---,0.00,VWS V14.00,2013-08-21 04:14:00,
2013-08-20 23:19:00,75.2,66.7,29.85,NW,315,1.0,0.0,75,0.00,,---,0.00,VWS V14.00,2013-08-21 04:19:00,
2013-08-20 23:25:00,75.2,66.7,29.85,NW,315,1.0,0.0,75,0.00,,---,0.00,VWS V14.00,2013-08-21 04:25:00,
2013-08-20 23:31:00,75.0,66.9,29.85,NW,315,1.0,0.0,76,0.00,,---,0.00,VWS V14.00,2013-08-21 04:31:00,
2013-08-20 23:36:00,75.0,66.9,29.85,NW,315,1.0,0.0,76,0.00,,---,0.00,VWS V14.00,2013-08-21 04:36:00,
2013-08-20 23:42:00,74.8,66.8,29.85,NW,315,1.0,0.0,76,0.00,,---,0.00,VWS V14.00,2013-08-21 04:42:00,
2013-08-20 23:47:00,74.8,66.8,29.85,NW,315,1.0,0.0,76,0.00,,---,0.00,VWS V14.00,2013-08-21 04:47:00,
2013-08-20 23:53:00,74.7,67.0,29.85,NW,315,1.0,0.0,77,0.00,,---,0.00,VWS V14.00,2013-08-21 04:53:00,
2013-08-20 23:59:00,74.7,67.0,29.85,NW,315,1.0,0.0,77,0.00,,---,0.00,VWS V14.00,2013-08-21 04:59:00,